Overview Statistics Trail Chart Weather Telemetry Raw packets
 

This is the latest recevied weather packets stored in our database for station/object HB9FHL-13. If no packets are shown the sender has not sent any weather packets the latest 10 day(s).

<< 102 103 104 105 106 107 108 >>
Time Temp. Humidity Pressure Rain* Wind** Luminosity Snow
1788018838 21.11° C - 1016.8 hPa 0 mm - - -
1788018537 21.11° C - 1015.9 hPa 0 mm - - -
1788018237 21.11° C - 1019.3 hPa 0 mm - - -
1788017940 21.67° C - 1018.3 hPa 0 mm - - -
1788017936 21.67° C - 1018.3 hPa 0 mm - - -
1788017642 21.11° C - 1023.3 hPa 0 mm - - -
1788017378 21.11° C - 1017.6 hPa 0 mm - - -
1788017339 21.11° C - 1017.6 hPa 0 mm - - -
1788017336 21.11° C - 1017.6 hPa 0 mm - - -
1788017038 21.67° C - 1016.3 hPa 0 mm - - -
1788017035 21.67° C - 1016.3 hPa 0 mm - - -
1788016734 22.22° C - 1019.9 hPa 0 mm - - -
1788016439 22.22° C - 1016.3 hPa 0 mm - - -
1788016434 22.22° C - 1016.3 hPa 0 mm - - -
1788016181 21.67° C - 1016.9 hPa 0 mm - - -
1788016137 21.67° C - 1016.9 hPa 0 mm - - -
1788016133 21.67° C - 1016.9 hPa 0 mm - - -
1788015835 21.11° C - 1017.9 hPa 0 mm - - -
1788015831 21.11° C - 1017.9 hPa 0 mm - - -
1788015536 22.22° C - 1017.5 hPa 0 mm - - -
1788015531 22.22° C - 1017.5 hPa 0 mm - - -
1788015231 21.11° C - 1014.2 hPa 0 mm - - -
1788014933 21.11° C - 1017.1 hPa 0 mm - - -
1788014928 21.11° C - 1017.1 hPa 0 mm - - -
1788014630 21.11° C - 1013.7 hPa 0 mm - - -

* Rain since midnight (hover to see other rain measurements)
** Current wind speed in m/s (hover to see current wind gust speed)